Regional Weather Roundup
Issued by NWS Cleveland, OH

Home | Current Version | Previous Version | Graphics & Text | Print | Product List | Glossary On
Versions: 1 2 3 4 5 6 7 8 9 10 11 12 13 14 15 16 17 18 19 20 21 22 23 24 25 26 27 28 29 30 31 32 33 34 35 36 37 38 39 40 41 42 43 44 45 46 47 48 49 50
000
ASUS41 KCLE 280402
RWRCLE
OHIO REGIONAL WEATHER ROUNDUP
NATIONAL WEATHER SERVICE CLEVELAND, OH
1100 PM EST THU NOV 27 2014

NOTE: "FAIR" INDICATES FEW OR NO CLOUDS BELOW 12,000 FEET WITH NO
SIGNIFICANT WEATHER AND/OR OBSTRUCTIONS TO VISIBILITY.

OHZ001>008-015>018-024>027-034-035-043-044-280500-
   NORTHWEST OHIO

CITY           SKY/WX    TMP DP  RH WIND       PRES   REMARKS
DEFIANCE       CLOUDY    26  17  68 NW9       30.34S WCI  17
FINDLAY        CLOUDY    28  22  78 W9        30.31R WCI  19
TOLEDO EXPRESS FAIR      25  15  66 NW10G17   30.32S WCI  15
TOLEDO EXEC    CLOUDY    27  19  72 NW14      30.33R WCI  16
LIMA           CLOUDY    28  22  78 W10       30.32S WCI  19
$$

OHZ009>014-019>023-028>033-038-089-280500-
   NORTHEAST OHIO

CITY           SKY/WX    TMP DP  RH WIND       PRES   REMARKS
CLE-HOPKINS    FLURRIES  29  22  75 NW17      30.27R WCI  17
CLE-LAKEFRONT  CLOUDY    32  23  69 NW21G28   30.24S WCI  20
CUY CO. ARPT   FLURRIES  30  27  86 N14       30.23R WCI  20
LORAIN-ELYRIA  LGT SNOW  28  26  92 NW8       30.27R FOG     WCI  20
ASHTABULA      LGT SNOW  28  23  81 NW13      30.21R WCI  17
AKRON-CANTON   CLOUDY    28  23  81 W10       30.22R WCI  19
WOOSTER        MOCLDY    27  22  81 NW8       30.25R WCI  19
MANSFIELD      FLURRIES  27  24  89 W9        30.25R WCI  18
YOUNGSTOWN     LGT SNOW  28  26  92 W7        30.18S FOG     WCI  21
$$

OHZ042-051>053-060>062-070>072-077>081-280500-
  SOUTHWEST OHIO

CITY           SKY/WX    TMP DP  RH WIND       PRES   REMARKS
CINC-COVINGTON CLOUDY    28  19  69 W12       30.38F WCI  18
CINC-LUNKEN    CLOUDY    29  18  63 W7        30.42S WCI  22
HAMILTON       CLOUDY    29  18  63 NW10      30.41R WCI  20
DAYTON         CLOUDY    27  20  75 W13       30.36S WCI  16
WRIGHT-PAT AFB NOT AVBL
DAYTON GENERAL CLOUDY    27  20  75 W7        30.36R WCI  19
WILMINGTON     CLOUDY    27  18  69 W12       30.35S WCI  17
$$

OHZ036-037-039>041-045>050-054>059-063>069-073>076-082>088-280500-
  CENTRAL AND SOUTHEAST OHIO

CITY           SKY/WX    TMP DP  RH WIND       PRES   REMARKS
COLUMBUS       CLOUDY    29  20  69 W12       30.32S WCI  19
OSU AIRPORT    CLOUDY    28  21  75 W13       30.32S WCI  17
BOLTON FIELD   NOT AVBL
RICKENBACK AFB NOT AVBL
NEWARK         CLOUDY    30  21  69 W10G21    30.31R WCI  21
MARION         CLOUDY    28  22  78 W15G21    30.30R WCI  16
LANCASTER      CLOUDY    29  21  72 W7        30.34R WCI  22
ZANESVILLE     CLOUDY    29  21  72 W7        30.30R WCI  22
NEW PHILLY     CLOUDY    30  24  78 W9        30.27R WCI  22
$$


USA.gov is the U.S. government's official web portal to all federal, state and local government web resources and services.